Regional Weather Roundup
Issued by NWS Kansas City/Pleasant Hill, MO

Home | Current Version | Previous Version | Graphics & Text | Print | Product List | Glossary Off
Versions: 1 2 3 4 5 6 7 8 9 10 11 12 13 14 15 16 17 18 19 20 21 22 23 24 25 26 27 28 29 30 31 32 33 34 35 36 37 38 39 40 41 42 43 44 45 46 47 48 49 50

000
ASUS43 KEAX 301704
RWREAX

WEATHER ROUNDUP FOR EASTERN KANSAS AND NORTHWEST MISSOURI
NATIONAL WEATHER SERVICE KANSAS CITY/PLEASANT HILL MO
1200 PM CDT SAT AUG 30 2014

KSZ040-057-103>105-MOZ028-029-037-043-301800-
...KANSAS CITY METROPOLITAN AREA...

CITY           SKY/WX    TMP DP  RH WIND       PRES   REMARKS
K.C. INTL      MOSUNNY   80  67  64 VRB5      29.95R
K.C. DOWNTOWN  SUNNY     83  67  58 N3        29.93S
LEES SUMMIT    MOSUNNY   81  69  67 CALM      29.95S
OLATHE - IXD   SUNNY     82  66  58 VRB6      29.95F
OLATHE - OJC   SUNNY     81  66  60 NW7       29.95S
LAWRENCE       SUNNY     86  67  52 NW6       29.94S

$$

MOZ001>008-011>017-020>025-030>033-038>040-044>046-053-054-301800-
...NORTHERN AND CENTRAL MISSOURI...

CITY           SKY/WX    TMP DP  RH WIND       PRES   REMARKS
ST. JOSEPH     SUNNY     80  70  71 VRB3      29.94S
MOSBY          MOSUNNY   79  66  65 W3        29.93S
WHITEMAN AFB   NOT AVBL
CLINTON        MOSUNNY   82  73  74 SW7       29.95S
SEDALIA        MOSUNNY   84  70  62 S8        29.95S
WARSAW         NOT AVBL
MARSHALL       MOSUNNY   84  73  70 W6        29.94S HX  91
CHILLICOTHE      N/A     81  69  67 CALM      29.93S
KIRKSVILLE     MOSUNNY   80  67  64 W6        29.94R

$$

MOZ041-047>049-056>058-063>065-088>090-097-301800-
...EASTERN AND SOUTHERN MISSOURI...

CITY           SKY/WX    TMP DP  RH WIND       PRES   REMARKS
ST. LOUIS INTL CLOUDY    80  71  74 S12       29.98R
SPIRIT OF STL  LGT RAIN  78  72  81 S7        29.95S
COLUMBIA       MOSUNNY   84  71  65 SW5       29.95R
JEFFERSON CITY SUNNY     84  71  65 SW9       29.94S
MEXICO         MOSUNNY   84  75  74 SW8       29.94  HX  92
ROLLA          PTSUNNY   81  69  67 S12       29.97F
LEBANON        MOSUNNY   82  68  61 SW3       29.99S
OSAGE BEACH    PTSUNNY   82  70  65 W6        29.96S
SPRINGFIELD    MOSUNNY   83  67  58 SW10      29.98S
BRANSON        PTSUNNY   84  68  58 SW5       30.02S
NEVADA         SUNNY     84  70  61 SW3       29.96S
JOPLIN         PTSUNNY   85  69  58 SW8       29.97S
WEST PLAINS    CLOUDY    75  70  84 SW7       30.04F

$$

IAZ060-094-KSZ022-034>040-054-083-096-NEZ052-066-093-301800-
...KANSAS...SOUTHEAST NEBRASKA AND IOWA...

CITY           SKY/WX    TMP DP  RH WIND       PRES   REMARKS
TOPEKA         SUNNY     83  69  62 CALM      29.95S
MANHATTAN      SUNNY     84  66  54 CALM      29.95F
EMPORIA        SUNNY     85  62  46 VRB3      29.96S
CHANUTE        SUNNY     86  67  52 VRB3      29.95F
WICHITA        MOSUNNY   88  63  43 VRB5      29.96F
OMAHA          CLOUDY    71  65  81 N5        29.95F
LINCOLN        SUNNY     78  66  66 CALM      29.96F
FALLS CITY     SUNNY     82  70  66 N3        29.93F
LAMONI         MOSUNNY   77  69  76 W7        29.93S
DES MOINES     PTSUNNY   78  68  71 W9        29.90S

$$



USA.gov is the U.S. government's official web portal to all federal, state and local government web resources and services.